574  
ASUS42 KRAH 211510  
RWRRAH  
NORTH CAROLINA WEATHER ROUNDUP  
NATIONAL WEATHER SERVICE RALEIGH NC  
1100 AM EDT SAT MAY 21 2022  
 
NOTE: "FAIR" INDICATES FEW OR NO CLOUDS BELOW 12,000 FEET WITH NO  
SIGNIFICANT WEATHER AND/OR S TO VISIBILITY
.  
 
NCZ001-053-055-056-065-067-211600-  
WESTERN NORTH CAROLINA  
 
CITY SKY/WX TMP DP RH WIND PRES REMARKS
 
ASHEVILLE SUNNY 79 63 57 VRB3 30.20F  
JEFFERSON SUNNY 77 48 35 W8 30.24F  
MORGANTON SUNNY 84 65 52 S5 30.19S  
HICKORY SUNNY 82 66 58 S5 30.15F  
WILKESBORO SUNNY 81 64 57 CALM 30.21S  
RUTHERFORDTON SUNNY 81 64 57 S6 30.17S  
MOUNT AIRY MOSUNNY 80 65 61 S3 30.18S  
BOONE MOSUNNY 77 50 38 NW5 30.25S  

 
 
NCZ021-022-025-041-071-084-088-211600-  
CENTRAL NORTH CAROLINA  
 
CITY SKY/WX TMP DP RH WIND PRES REMARKS
 
CHARLOTTE MOSUNNY 82 69 64 S8 30.16S  
GREENSBORO PTSUNNY 82 68 62 VRB6 30.15S  
WINSTON-SALEM MOSUNNY 83 66 56 VRB5 30.16S  
RALEIGH-DURHAM PTSUNNY 86 73 65 VRB5 30.15S  
FORT BRAGG MOSUNNY 87 70 56 SW6 30.13S  
FAYETTEVILLE MOSUNNY 86 69 56 SW8 30.15S  
BURLINGTON MOSUNNY 83 67 58 VRB5 30.15R  
ROXBORO SUNNY 81 68 65 SW3 30.17S  
HENDERSON SUNNY 82 67 61 SW6 30.14S  
LOUISBURG MOSUNNY 84 70 61 W6 30.17S  
LAURINBURG PTSUNNY 84 69 60 SW6 30.16S  

 
 
NCZ011-015-027-028-043-044-047-080-103-211600-  
NORTHEASTERN NORTH CAROLINA  
 
CITY SKY/WX TMP DP RH WIND PRES REMARKS
 
ROCKY MT-WILSO MOSUNNY 85 70 60 VRB7 30.15S  
GREENVILLE MOSUNNY 86 72 62 SW9 30.15S  
WASHINGTON MOSUNNY 88 70 55 W6 30.16S  
ELIZABETH CITY SUNNY 85 72 65 SW10 30.14R  
MANTEO SUNNY 84 71 65 W12 30.16S  
CAPE HATTERAS SUNNY 79 73 82 SW6 30.19R  

 
 
NCZ078-087-090-091-093-098-101-211600-  
SOUTHEASTERN NORTH CAROLINA  
 
CITY SKY/WX TMP DP RH WIND PRES REMARKS
 
GOLDSBORO PTSUNNY 86 70 58 S7 30.13S  
KINSTON SUNNY 84 72 65 W5 30.17R  
KENANSVILLE MOSUNNY 84 72 65 MISG 30.17S  
NEW BERN SUNNY 88 70 55 W8 30.17S  
CHERRY POINT MOSUNNY 87 73 62 SW12G21 30.18R  
BEAUFORT SUNNY 81 75 82 SW15 30.19R  
JACKSONVILLE MOSUNNY 87 72 60 W10G18 30.16S  
WILMINGTON PTSUNNY 86 71 60 SW8 30.17S  

 
 
 
 
CLICK HERE TO GO TO PREVIOUS BULLETINS.

The Nexlab NC Page Main Text Page